Location: Carrières
(48.9495°N, 2.0407°E)
Time: 18:26:13
(UTC+00:00)

Altair - Pass Details

Date: 29 April 2024
Orbit: 1502 x 1682 km, 47.2° (Epoch: 21 May)

Event Time Altitude Azimuth Distance (km) Brightness Sun altitude
Rises 00:25:45 0° 287° (WNW) 4,838 10.2 -26.0°
Reaches altitude 10° 00:30:45 10° 266° (W) 3,809 9.4 -25.8°
Enters shadow 00:33:25 14° 250° (WSW) 3,485 9.1 -25.7°
